Weather History for Mobile, AL

Change the Weather History Date:

Monday, June 3, 2013

  Actual Average Record
Temperature  
Mean Temperature 79 °F 78 °F  
Max Temperature 88 °F 88 °F 100 °F (2011)
Min Temperature 69 °F 68 °F 56 °F (1956)
Cooling Degree Days 14 13  
Month to date cooling degree days 44 39  
Year to date cooling degree days 408 484  
Since 1 June cooling degree days 44 39  
Growing Degree Days 28 (Base 50)    
Moisture  
Dew Point 71 °F    
Average Humidity 79    
Maximum Humidity 97    
Minimum Humidity 61    
Precipitation  
Precipitation 0.06 in 0.18 in 2.00 in (1989)
Month to date precipitation 0.33 0.55  
Year to date precipitation 28.78 27.39  
Sea Level Pressure  
Sea Level Pressure 29.91 in    
Wind  
Wind Speed 3 mph (SSE)    
Max Wind Speed 20 mph    
Max Gust Speed 22 mph    
Visibility 8 miles    
Events Rain    
T = Trace of Precipitation, MM = Missing Value Source: NWS Daily Summary

Daily Weather History Graph

Daily Weather History Graph

Search for Another Location

Airport:

Trip Planner

Search our weather history database for the weather conditions in past years. The results will help you decide how hot, cold, wet, or windy it might be!

Date:

Astronomy

Jun. 03, 2013 Rise Set
Actual Time 5:50 AM CDT 7:52 PM CDT
Civil Twilight 5:22 AM CDT 8:19 PM CDT
Nautical Twilight 4:49 AM CDT 8:53 PM CDT
Astronomical Twilight 4:14 AM CDT 9:28 PM CDT
Moon 2:30 AM CDT (6/3) 3:37 PM CDT (6/3)
Length of Visible Light 14h 56m
Length of Day
14h 02m
Waning Crescent, 22% of the Moon is Illuminated
Jun 3
Waning Crescent
Jun 8
New
Jun 16
First Quarter
Jun 23
Full
Jun 29
Last Quarter

Hourly Weather History & Observations

Time (CDT) Temp. Heat Index Dew Point Humidity Pressure Visibility Wind Dir Wind Speed Gust Speed Precip Events Conditions
12:56 AM 73.0 °F - 70.0 °F 90% 29.91 in 10.0 mi SE 3.5 mph - N/A   Scattered Clouds
1:56 AM 73.0 °F - 70.0 °F 90% 29.90 in 10.0 mi Calm Calm - N/A   Scattered Clouds
2:56 AM 71.1 °F - 69.1 °F 93% 29.88 in 10.0 mi Calm Calm - N/A   Clear
3:56 AM 70.0 °F - 68.0 °F 93% 29.88 in 10.0 mi Calm Calm - N/A   Clear
4:56 AM 70.0 °F - 68.0 °F 93% 29.89 in 10.0 mi Calm Calm - N/A   Clear
5:56 AM 69.1 °F - 66.9 °F 93% 29.90 in 7.0 mi Calm Calm - N/A   Scattered Clouds
6:56 AM 72.0 °F - 69.1 °F 91% 29.92 in 7.0 mi Calm Calm - N/A   Scattered Clouds
6:59 AM 71.6 °F - 69.8 °F 94% 29.93 in 7.0 mi Calm Calm - N/A   Scattered Clouds
7:56 AM 77.0 °F - 72.0 °F 84% 29.93 in 7.0 mi Calm Calm - N/A   Scattered Clouds
8:17 AM 77.0 °F - 71.6 °F 83% 29.94 in 7.0 mi Calm Calm - N/A   Mostly Cloudy
8:34 AM 78.8 °F - 73.4 °F 83% 29.94 in 7.0 mi NW 3.5 mph - N/A   Overcast
8:39 AM 78.8 °F - 73.4 °F 83% 29.95 in 7.0 mi Calm Calm - N/A   Mostly Cloudy
8:56 AM 79.0 °F - 73.0 °F 82% 29.94 in 7.0 mi Calm Calm - N/A   Mostly Cloudy
9:42 AM 80.6 °F 84.6 °F 71.6 °F 74% 29.94 in 7.0 mi Calm Calm - N/A   Mostly Cloudy
9:56 AM 84.0 °F 90.2 °F 73.0 °F 69% 29.93 in 7.0 mi Calm Calm - N/A   Mostly Cloudy
10:02 AM 82.4 °F 87.2 °F 71.6 °F 70% 29.94 in 10.0 mi West 3.5 mph - N/A   Mostly Cloudy
10:56 AM 84.0 °F 88.4 °F 70.0 °F 63% 29.93 in 7.0 mi Calm Calm - N/A   Mostly Cloudy
11:00 AM 84.2 °F 89.6 °F 71.6 °F 66% 29.94 in 7.0 mi NW 3.5 mph - N/A   Mostly Cloudy
11:56 AM 84.9 °F 88.8 °F 69.1 °F 59% 29.92 in 7.0 mi Calm Calm - N/A   Mostly Cloudy
12:56 PM 79.0 °F - 70.0 °F 74% 29.92 in 7.0 mi SSE 15.0 mph - N/A   Mostly Cloudy
1:56 PM 84.0 °F 89.0 °F 71.1 °F 65% 29.91 in 7.0 mi SE 10.4 mph - N/A   Mostly Cloudy
2:56 PM 82.9 °F 86.5 °F 69.1 °F 63% 29.88 in 10.0 mi SSE 6.9 mph - N/A   Mostly Cloudy
3:56 PM 84.0 °F 88.4 °F 70.0 °F 63% 29.87 in 10.0 mi SSE 9.2 mph - N/A   Mostly Cloudy
4:56 PM 84.9 °F 91.4 °F 73.0 °F 67% 29.86 in 10.0 mi South 5.8 mph - N/A   Scattered Clouds
5:15 PM 82.4 °F 88.2 °F 73.4 °F 74% 29.87 in 10.0 mi South 8.1 mph - N/A   Mostly Cloudy
5:56 PM 82.0 °F 85.9 °F 70.0 °F 67% 29.87 in 10.0 mi NE 5.8 mph - N/A   Mostly Cloudy
6:50 PM 75.2 °F - 71.6 °F 89% 29.89 in 6.0 mi West 6.9 mph - 0.02 in Rain Rain
6:56 PM 75.9 °F - 72.0 °F 87% 29.89 in 6.0 mi WSW 4.6 mph - 0.05 in Rain Rain
7:52 PM 77.0 °F - 73.4 °F 89% 29.90 in 10.0 mi ESE 4.6 mph - 0.01 in   Overcast
7:56 PM 77.0 °F - 73.0 °F 88% 29.89 in 10.0 mi ESE 5.8 mph - 0.01 in   Overcast
8:56 PM 77.0 °F - 73.0 °F 88% 29.91 in 10.0 mi ESE 3.5 mph - N/A   Overcast
9:56 PM 75.9 °F - 73.0 °F 91% 29.92 in 10.0 mi SE 4.6 mph - N/A   Mostly Cloudy
10:56 PM 75.9 °F - 73.0 °F 91% 29.93 in 10.0 mi Calm Calm - N/A   Scattered Clouds
11:56 PM 75.0 °F - 72.0 °F 90% 29.93 in 10.0 mi Calm Calm - N/A   Clear